Weather History for Hattiesburg, MS

Change the Weather History Date:

Thursday, January 12, 2012

  Actual Average Record
Temperature  
Mean Temperature 45 °F 49 °F  
Max Temperature 55 °F 60 °F 79 °F (2013)
Min Temperature 34 °F 37 °F 8 °F (1982)
Degree Days  
Heating Degree Days 20 17  
Month to date heating degree days 132 197  
Since 1 July heating degree days 876 982  
Cooling Degree Days 0 0  
Month to date cooling degree days 4 0  
Year to date cooling degree days 4 0  
Moisture  
Dew Point 34 °F    
Average Humidity 59    
Maximum Humidity 89    
Minimum Humidity 28    
Precipitation  
Precipitation 0.00 in 0.18 in 1.15 in (1974)
Month to date precipitation 0.61 2.18  
Year to date precipitation 0.61 2.18  
Sea Level Pressure  
Sea Level Pressure 29.92 in    
Wind  
Wind Speed 10 mph (WNW)    
Max Wind Speed 25 mph    
Max Gust Speed 33 mph    
Visibility 10 miles    
Events      
T = Trace of Precipitation, MM = Missing Value Source: NWS Daily Summary

Daily Weather History Graph

Daily Weather History Graph

Search for Another Location

Airport:

Trip Planner

Search our weather history database for the weather conditions in past years. The results will help you decide how hot, cold, wet, or windy it might be!

Date:

Astronomy

Jan. 12, 2012 Rise Set
Actual Time 6:56 AM CST 5:13 PM CST
Civil Twilight 6:30 AM CST 5:40 PM CST
Nautical Twilight 6:00 AM CST 6:10 PM CST
Astronomical Twilight 5:31 AM CST 6:39 PM CST
Moon 9:00 PM CST (1/12) 8:56 AM CST (1/12)
Length of Visible Light 11h 09m
Length of Day
10h 17m
Waning Gibbous, 87% of the Moon is Illuminated
Jan 12
Waning Gibbous
Jan 16
Last Quarter
Jan 23
New
Jan 30
First Quarter
Feb 7
Full

Hourly Weather History & Observations

Time (CST) Temp. Windchill Dew Point Humidity Pressure Visibility Wind Dir Wind Speed Gust Speed Precip Events Conditions
12:53 AM 41.0 °F - 37.9 °F 89% 29.79 in 10.0 mi Calm Calm - N/A   Clear
1:53 AM 46.0 °F 43.9 °F 41.0 °F 83% 29.77 in 10.0 mi SSW 4.6 mph - N/A   Clear
2:53 AM 48.0 °F - 44.1 °F 86% 29.77 in 10.0 mi SSW 4.6 mph - N/A   Clear
3:53 AM 48.9 °F - 44.1 °F 83% 29.75 in 10.0 mi SSW 4.6 mph - N/A   Clear
4:53 AM 48.9 °F - 45.0 °F 86% 29.76 in 10.0 mi SSW 4.6 mph - N/A   Clear
5:53 AM 50.0 °F - 46.9 °F 89% 29.76 in 10.0 mi SSW 4.6 mph - N/A   Scattered Clouds
6:53 AM 52.0 °F - 48.0 °F 86% 29.78 in 10.0 mi SW 4.6 mph - N/A   Overcast
7:23 AM 53.6 °F - 48.2 °F 82% 29.79 in 10.0 mi West 4.6 mph - N/A   Overcast
7:53 AM 55.0 °F - 50.0 °F 83% 29.80 in 10.0 mi WNW 11.5 mph 16.1 mph N/A   Overcast
8:35 AM 53.6 °F - 46.4 °F 77% 29.82 in 10.0 mi WNW 11.5 mph - N/A   Overcast
8:53 AM 53.1 °F - 46.0 °F 77% 29.84 in 10.0 mi WNW 18.4 mph 25.3 mph N/A   Overcast
9:27 AM 50.0 °F - 42.8 °F 76% 29.88 in 10.0 mi WNW 17.3 mph 29.9 mph N/A   Overcast
9:53 AM 48.9 °F - 41.0 °F 74% 29.91 in 10.0 mi NW 18.4 mph 31.1 mph N/A   Overcast
10:53 AM 50.0 °F - 39.0 °F 66% 29.93 in 10.0 mi NW 18.4 mph 28.8 mph N/A   Overcast
11:53 AM 48.0 °F - 37.0 °F 66% 29.95 in 10.0 mi WNW 15.0 mph 27.6 mph N/A   Overcast
12:21 PM 51.8 °F - 35.6 °F 54% 29.94 in 10.0 mi WNW 16.1 mph 25.3 mph N/A   Mostly Cloudy
12:53 PM 52.0 °F - 32.0 °F 47% 29.93 in 10.0 mi WNW 21.9 mph 31.1 mph N/A   Partly Cloudy
1:53 PM 52.0 °F - 28.9 °F 41% 29.93 in 10.0 mi NNW 17.3 mph - N/A   Clear
2:53 PM 53.1 °F - 21.9 °F 30% 29.95 in 10.0 mi WNW 17.3 mph 27.6 mph N/A   Clear
3:53 PM 52.0 °F - 23.0 °F 32% 29.96 in 10.0 mi NW 11.5 mph 19.6 mph N/A   Clear
4:53 PM 48.0 °F - 18.0 °F 30% 30.00 in 10.0 mi NW 10.4 mph - N/A   Clear
5:53 PM 44.1 °F 39.5 °F 19.9 °F 38% 30.03 in 10.0 mi WNW 8.1 mph - N/A   Clear
6:53 PM 43.0 °F 39.5 °F 21.0 °F 42% 30.07 in 10.0 mi WNW 5.8 mph - N/A   Clear
7:53 PM 42.1 °F 37.1 °F 21.0 °F 43% 30.10 in 10.0 mi NW 8.1 mph - N/A   Clear
8:53 PM 39.0 °F 33.4 °F 19.0 °F 45% 30.14 in 10.0 mi NW 8.1 mph - N/A   Clear
9:53 PM 37.9 °F 32.1 °F 16.0 °F 41% 30.16 in 10.0 mi NW 8.1 mph - N/A   Clear
10:53 PM 36.0 °F 29.0 °F 16.0 °F 44% 30.17 in 10.0 mi NW 9.2 mph - N/A   Clear
11:53 PM 35.1 °F 28.6 °F 17.1 °F 48% 30.19 in 10.0 mi WNW 8.1 mph - N/A   Clear